Torna al catalogo

STARLINK-5803

AttivoComunicazioniVLEO
NORAD 56008·PAYLOAD·🇺🇸 United States

Lanciato Mar 24, 2023 da Cape Canaveral Space Force Station

Loading…

Prossimi Passaggi (prossime 24 ore)

TLE

AggiornatoSource: CelesTrak SupGP

Epoca: Sep 14, 2026, 22:32 UTC

1 56008C 23042Y   26257.93937500  .00055485  00000+0  20096-2 0  2570
2 56008  43.0036  70.6681 0001400 269.1616 118.9331 15.27551401    19

Traccia STARLINK-5803 in tempo reale con AllMySat

Download on the App Store